Погода Кики Акки

Погода Кики Акки : погода сейчас, прогноз погоды и архив. Всё, что Вы хотите узнать о погоде Кики Акки!

Хотите узнать прогноз погоды Кики Акки? Тогда Вам сюда: Погода Кики Акки

Поиск расширенной информации на нашем сайте:

Другие новости

Новости СМИ2

Главная страница сайта

Новости сайта

03.07.2017

Напоминаем, что на нашем специализированном сайте Метеоцентр.Азия вы можете получить высокодетализированные автоматические прогнозы погоды по пунктам России, СНГ и мира в авиационном формате (включающие направление и скорость ветра, видимость, явления погоды, количество и форму облачности, нижнюю и верхнюю границу облачности).

Рекомендуем: Рыбалка сайт о рыбалке.

Погода Кики Акки - сегодня

Время (UTC), дата Ветер
(°,м/с) 
Видим.   Явления Облачность Т
(°С)
Тd
(°С)
f(%) Тe
(°С)
Pmin
(гПа)
dP
(гПа)
Po
(мм)
O2
(г/м3)
Тmin Tmax R s Состояние
почвы
21 20.11.17 070 (В) 20000 м    4/0 средняя 
[Ac trans]
-23.5 -26 80 -24  1023.3  764  339           
00 21.11.17 тихо ()   20000 м    ясно 
-24.7 -27.4 78 -25  1023.9  0.6  764  340           
03 21.11.17 090 (В) 20000 м    8/8 600 м 
[Sc]
-23.2 -25.7 80 -24  1024.6  0.7  765  339  -25.9    0.0  30  равномерный
сухой снег
100% 
06 21.11.17 120 (ЮВ) 20000 м    9/9 600 м 
[Sc]
-21.5 -24.1 79 -22  1024.6  0.1  765  336           
09 21.11.17 110 (В) 4000 м  слаб. ливневой снег  10/10 500 м кучево-дожд. 
[Cb cap]
-19.8 -22.2 81 -20  1023.7  -0.9  764  334           
12 21.11.17 110 (В) 4000 м  слаб. ливневой снег  10/10 480 м кучево-дожд. 
[Cb cap]
-18.7 -20.9 83 -19  1022.1  -1.6  763  332           
15 21.11.17 090 (В) 4000 м  слаб. ливневой снег  10/10 400 м кучево-дожд. 
[Cb cap]
-17.3 -19.3 84 -20  1020.4  -1.6  762  329    -17.3     
18 21.11.17 080 (В) 4000 м  слаб. ливневой снег  10/10 420 м кучево-дожд. 
[Cb cap]
-16.6 -18.6 85 -19  1020.2  -0.2  762  328           
21 21.11.17 060 (СВ) 20000 м  {ливн. осадки}  10/10 600 м кучево-дожд. 
[Cb cap]
-18.3 -20.3 84 -19  1022.5  2.3  763  331           
00 22.11.17 080 (В) 10 км  слаб. ливневой снег  10/10 450 м кучево-дожд. 
[Cb cap]
-18.2 -20.3 84 -18  1024.9  2.4  765  332           
03 22.11.17 090 (В) 20000 м  {ливн. осадки, снег}  10/10 300 м кучево-дожд. 
[Cb cap]
-17.9 -19.7 86 -18  1027.4  2.5  767  332  -19.1      32  равномерный
сухой снег
100% 
06 22.11.17 110 (В) 4000 м  {ливн. осадки, снег}  10/8 300 м средняя 
[Sc|As op]
-17.9 -19.8 85 -18  1028.6  1.2  768  333           
09 22.11.17 110 (В) 4000 м  {снег}  10/8 600 м средняя 
[Sc|As op]
-17.8 -19.8 84 -18  1029.4  0.8  769  333           
12 22.11.17 110 (В) 4000 м  слаб. снег{дождь}  10/8 300 м средняя 
[Sc|As op]
-17.9 -20 84 -20  1029.9  0.4  769  333           
15 22.11.17 110 (В) 4000 м  слаб. снег  10/10 400 м 
[Sc]
-18.6 -20.7 83 -19  1029.2  -0.7  768  334    -17.7  0.3     
18 22.11.17 100 (В) 4000 м  слаб. снег  10/8 300 м средняя 
[Sc|As op]
-18 -20 84 -21  1028.3  -0.8  768  333           
21 22.11.17 100 (В) 4000 м  слаб. снег  10/8 300 м средняя 
[Sc|As op]
-17.1 -19.1 84 -17  1027.6  -0.8  767  331           
00 23.11.17 100 (В) 4000 м  слаб. снег  10/8 300 м средняя 
[Sc|As op]
-17.4 -19.5 84 -18  1026.9  -0.8  767  331           
03 23.11.17 100 (В) 10 км  снежные кристаллы  10/6 600 м верхняя 
[Sc|Cs]
-17.9 -19.9 84 -20  1026.4  -0.4  766  332  -18.6    33  равномерный
сухой снег
100% 
06 23.11.17 100 (В) 10 км  снежные кристаллы  10/4 300 м средняя 
[Sc|As op]
-15.7 -17.7 85 -16  1026.6  0.2  766  329           
09 23.11.17 090 (В) 4000 м  слаб. снег  10/8 600 м средняя 
[Sc|As op]
-15.7 -17.7 85 -18  1026.9  0.3  767  329           
12 23.11.17 090 (В) 4000 м  слаб. снег  10/0 средняя 
[As op]
-16.6 -18.7 84 -19  1026.9  0.1  767  330           
15 23.11.17 100 (В) 4000 м  слаб. снег  10/0 средняя 
[As op]
-16.9 -19 84 -19  1026.4  -0.5  766  331    -15.4     
18 23.11.17 090 (В) 4000 м  слаб. снег  10/0 средняя 
[As op]
-17.1 -19.3 83 -20  1026.4  766  331           
21 23.11.17 110 (В) 4000 м  слаб. снег  10/0 средняя 
[As op]
-17.2 -19.3 84 -20  1024.7  -1.7  765  331           
Время (UTC), дата Ветер
(°,м/с) 
Видим.   Явления Облачность Т
(°С)
Тd
(°С)
f(%) Тe
(°С)
Pmin
(гПа)
dP
(гПа)
Po
(мм)
O2
(г/м3)
Тmin Tmax R s Состояние
почвы

Для получения пояснительной информации подведите курсор к названию столбца.

ПОГОДА Кики Акки - архив

Всё, что Вы хотите узнать о погоде Кики Акки - удобно и подробно!

Выберите нужную дату (начиная с 1 января 2015* года) и нажмите кнопку "Найти".
Будут отображены архивные сводки погоды по пункту Кики Акки, начиная с указанной даты.


Отображать данные в формате CSV (для использования в таблицах Excel)


Внимание! Наш архив погоды предназначен исключительно для личного некоммерческого использования в познавательных целях. Если Вам необходимы официальные справки о состоянии погоды (для производственных, юридических, коммерческих и т.п. целей), обращайтесь в органы Росгидромета.

*Примечание: данная дата относится к архиву по метеостанциям СССР (Россия, СНГ, Балтия).
Архив по метеостанциям Зарубежной Европы и Азии (кроме Китая) хранится 10 дней, по другим регионам земного шара (Китай, Африка, Америка, Австралия, Океания) - 1 день.

Кики Акки - район местоположения метеостанции


Название, широта, долгота, высота метеостанции:
Кики Акки (Толька) 63.8°ш. 82.7°д. 33 м над ур. моря [Российская Федерация]

Дополнительная информация

В oтличие oт бoльшинства пoгoдных сайтoв мы публикуем пoдрoбную метеoинфoрмацию в детальнoм прoфессиoнальнoм фoрмате.

Характеристики температуры и влажнoсти вoздуха измеряются на высoте 2 м в тени вдали oт зданий и деревьев.
Скoрoсть ветра измеряется на высoте 10 м (на урoвне рoста челoвека скoрoсть ветра ниже в 1.5-2 раза). Если метеoстанция нахoдится в гoрoде или в лесу, тo скoрoсть ветра занижена на 2-4 м/с пo сравнению с oткрытым местoм. Скoрoсть ветра над акватoриями крупных рек и oзёр, а также на вершинах хoлмoв на 2-5 м/с выше, чем в oбычных услoвиях.
Атмoсфернoе давление в разных тoчках местнoсти мoжет значительнo oтличаться oт давления на метеoстанции, в зависимoсти oт услoвий рельефа (при пoдъёме на 10 м давление пoнижается примернo на 1 мм рт.ст.).